GFSNE_sfc_thetae_075.txt.gz
Theta_e
305 304 303 303 302 301 300 298 295 290 291 295 295 300 300 300 299 298 297 297 292 292 291 290 289 289 290 291 291 292 292 293 294 294 294 295 296 297
304 303 303 302 301 301 300 299 297 294 291 294 295 298 299 297 298 297 296 296 294 293 292 290 289 289 289 289 289 290 290 291 292 293 293 294 295 296
303 302 302 302 300 300 299 299 297 296 293 295 297 298 297 297 297 297 296 294 295 293 292 289 288 288 287 287 287 288 288 289 289 290 291 292 293 294
302 302 300 299 300 300 299 298 297 297 295 293 295 295 296 296 296 295 293 293 293 292 292 288 288 288 287 287 286 286 287 287 287 288 289 289 290 292
301 300 299 299 299 299 299 298 298 295 296 294 293 295 295 295 294 293 292 293 292 292 291 290 290 289 287 287 287 287 287 287 287 287 287 287 288 289
299 299 298 298 297 298 297 298 296 295 295 293 292 291 291 292 292 290 289 291 289 290 290 289 290 290 290 289 288 288 287 287 287 287 287 287 287 288
297 297 298 297 296 295 296 296 295 293 292 291 290 289 289 289 288 290 288 289 289 289 288 289 289 289 289 290 290 290 288 287 287 286 286 287 287 287
294 295 296 295 294 291 291 290 291 292 290 289 289 288 288 289 290 288 287 286 283 290 287 287 288 287 288 289 289 287 286 286 286 287 287 287 287 288
294 294 294 294 294 296 292 289 289 288 286 290 288 288 288 289 289 287 286 285 284 286 286 284 287 286 288 288 289 288 288 287 286 287 287 288 288 288
294 295 295 296 296 294 294 294 294 293 291 290 290 289 290 290 289 288 287 285 285 286 286 282 286 285 288 288 288 289 289 288 287 287 288 288 288 287
294 294 294 294 292 290 291 291 291 291 292 289 289 289 287 285 284 286 284 283 282 282 286 284 285 284 285 286 288 287 286 287 287 288 288 288 288 288
290 290 288 288 286 287 289 289 287 288 288 289 290 288 287 287 284 285 285 282 281 281 285 283 283 283 280 285 286 287 288 287 287 288 289 289 289 288
286 287 289 286 286 287 287 288 287 288 287 288 288 289 289 288 288 287 286 285 282 281 285 284 282 281 281 281 283 286 287 287 288 288 288 289 289 289
285 288 289 287 287 286 286 286 286 285 287 285 286 286 287 287 288 288 287 287 287 285 286 286 283 281 280 279 279 283 285 287 287 287 288 289 289 289
285 286 285 286 286 286 286 285 285 286 285 284 285 286 287 288 288 287 287 287 287 287 286 286 284 282 281 280 279 281 282 285 286 286 288 287 288 288
283 285 284 284 285 285 286 288 287 286 286 285 286 287 288 287 286 287 285 285 283 284 285 286 285 284 281 281 281 280 282 281 284 285 286 288 288 289
281 283 285 285 285 286 286 287 287 287 286 286 286 286 286 286 286 287 285 283 282 281 281 284 285 285 284 282 280 281 281 282 285 285 285 284 286 288
280 282 280 281 280 281 283 283 286 286 287 286 286 285 285 285 284 285 284 283 281 281 281 282 282 282 282 283 284 281 283 283 285 285 284 282 283 287
279 279 278 277 278 279 280 280 281 282 284 286 285 285 285 284 284 283 283 282 281 280 281 282 281 280 277 277 282 283 281 282 282 282 283 283 283 284
278 277 277 276 276 276 277 277 278 279 281 281 285 285 285 284 284 283 282 282 281 280 280 281 281 280 278 278 278 282 283 281 281 281 281 283 284 284
276 275 275 275 275 275 276 276 277 277 278 279 280 283 285 284 283 283 283 281 281 280 278 279 281 279 281 280 277 279 284 283 283 281 281 280 281 282
274 273 274 274 273 273 274 274 275 275 276 277 277 279 281 283 283 283 282 282 280 280 279 281 282 281 280 278 278 280 282 283 283 282 282 280 280 277
273 272 272 273 273 273 273 272 272 273 273 274 275 275 275 277 282 283 283 282 281 280 280 279 280 280 279 279 279 279 280 282 283 282 282 282 281 281

GFSNE_sfc_thetae_078.txt.gz
Theta_e
303 301 300 300 299 298 296 294 290 285 286 289 289 293 294 294 295 292 292 297 297 294 293 293 293 292 291 290 291 291 292 293 293 294 294 295 296 297
302 301 300 299 298 297 295 295 293 290 287 290 290 291 293 295 295 294 294 298 295 294 293 294 294 292 290 290 290 290 290 291 291 292 292 293 294 295
301 300 299 300 297 296 295 294 293 292 288 290 291 291 291 291 292 292 294 291 292 295 295 294 293 291 290 289 289 289 289 289 290 290 290 291 292 293
300 300 299 300 296 296 295 293 292 292 290 288 290 289 289 290 290 290 293 294 290 293 294 293 292 291 290 289 289 288 288 288 288 288 289 289 290 291
299 297 297 296 294 294 294 293 292 294 290 287 288 288 288 288 287 287 288 289 292 294 293 292 291 291 291 290 289 289 289 288 288 288 287 287 288 288
297 296 295 295 294 293 293 291 292 289 288 286 286 286 285 286 285 284 285 286 287 291 291 289 290 291 292 291 290 290 290 289 289 289 288 288 288 287
294 295 294 295 295 293 291 289 289 289 288 287 286 285 284 284 283 284 286 284 285 286 284 283 283 284 285 289 290 291 290 291 290 289 288 288 287 287
291 292 292 293 292 291 290 290 290 288 287 287 287 285 284 283 283 283 285 283 279 284 284 280 282 281 283 284 289 288 288 287 287 287 287 287 288 288
290 290 291 293 292 292 291 290 288 288 286 288 286 285 285 284 283 282 283 281 279 281 280 278 280 279 283 287 289 289 289 289 288 288 287 287 288 288
291 291 290 289 290 288 286 285 287 288 289 288 287 287 288 287 284 284 282 281 281 281 281 275 279 280 282 283 288 289 289 288 289 288 288 288 288 288
289 288 288 286 287 288 284 283 284 285 289 290 290 290 290 289 285 281 278 277 276 279 280 278 279 280 280 279 281 288 288 288 288 288 288 288 288 288
285 286 286 285 286 286 283 283 282 283 284 286 286 287 288 287 286 283 281 278 279 276 280 277 278 279 276 280 280 280 281 286 287 288 288 288 288 286
281 282 283 286 286 286 286 284 283 284 284 283 284 285 286 287 283 283 283 282 279 278 281 279 277 277 275 276 277 279 279 280 281 283 287 288 288 288
280 281 282 284 285 285 285 285 286 284 284 283 283 283 283 285 286 286 285 283 283 281 282 282 278 277 277 275 275 277 278 279 279 281 280 284 288 288
280 281 283 283 283 283 285 285 285 283 284 282 282 282 283 286 286 286 286 285 284 283 284 283 282 281 278 276 276 277 276 278 280 279 279 282 282 282
278 278 279 280 281 283 282 283 282 285 284 283 283 282 283 284 285 285 283 283 282 281 283 284 283 281 278 279 278 277 277 275 278 278 280 278 282 281
275 277 277 278 278 278 279 280 280 281 280 283 283 282 282 281 282 282 281 283 281 278 280 281 283 282 282 280 277 278 278 278 278 280 281 282 279 280
276 275 274 271 272 275 276 276 277 277 278 279 280 283 282 280 280 281 280 282 279 279 280 280 280 279 280 281 283 278 278 279 280 279 279 275 278 279
274 273 270 270 271 274 275 274 275 276 277 277 277 278 281 281 279 281 281 282 280 279 279 279 279 277 275 269 277 284 275 277 277 274 276 277 273 279
274 273 270 271 272 273 273 273 273 274 274 274 274 276 277 278 282 281 281 280 280 280 279 279 278 278 276 272 269 272 283 277 275 273 277 276 278 282
273 273 271 271 271 272 272 272 271 272 271 272 273 274 274 275 276 281 281 281 279 280 279 278 278 279 278 274 266 268 273 284 282 278 277 272 274 276
270 271 271 271 270 271 271 270 270 270 270 270 270 272 272 272 272 274 278 281 279 278 278 278 279 279 277 275 271 268 273 276 282 283 282 279 271 269
267 270 271 268 269 269 269 269 269 268 269 269 269 269 269 269 271 272 273 280 279 279 277 277 278 278 278 277 274 272 272 271 279 280 279 282 282 281

GFSNE_sfc_thetae_081.txt.gz
Theta_e
301 301 301 300 299 298 297 293 290 284 284 287 288 292 292 292 293 295 291 297 297 297 296 296 296 295 295 294 293 292 292 292 292 293 293 294 295 296
303 302 300 299 299 298 296 294 291 289 287 288 289 290 291 294 294 293 291 296 297 296 295 295 295 295 295 293 292 291 291 291 291 291 292 292 293 294
302 301 299 298 297 296 294 293 292 290 287 289 289 290 288 289 291 291 291 291 292 296 294 294 295 295 295 293 292 291 290 290 290 290 290 291 292 293
300 299 298 298 295 294 293 292 291 291 289 289 288 287 288 290 290 288 292 293 291 293 295 295 295 294 293 292 291 291 290 290 290 289 290 290 290 290
299 296 296 294 292 291 291 290 290 292 289 286 285 286 286 286 285 286 286 287 291 294 294 293 294 294 293 292 291 291 291 290 290 289 289 289 289 289
296 294 293 292 291 290 290 289 290 288 286 284 284 283 283 284 283 282 282 283 284 290 291 290 290 292 293 292 292 292 291 291 291 290 289 289 288 288
291 292 291 292 294 291 289 287 286 284 283 283 285 281 281 281 281 282 282 282 282 284 285 287 283 282 283 287 289 292 291 291 291 291 290 289 289 288
288 288 289 291 290 290 290 289 287 283 282 281 283 283 284 282 283 282 281 281 278 283 282 280 281 280 281 282 287 289 290 290 289 289 289 289 288 288
286 286 288 291 289 288 287 286 285 287 285 283 283 284 284 283 284 285 282 282 280 281 280 277 279 278 281 284 288 289 289 289 290 289 289 288 288 287
288 287 285 285 285 286 284 281 281 283 284 285 284 285 285 287 287 286 285 282 280 280 280 274 277 278 279 280 286 289 289 289 288 288 289 288 288 288
286 286 285 283 285 287 283 281 282 282 287 288 288 288 289 289 289 287 283 281 274 277 279 277 278 277 278 279 281 286 287 288 288 288 288 288 288 288
282 283 284 284 285 285 282 281 279 281 281 282 283 284 285 285 287 287 285 281 278 274 279 278 277 277 274 278 279 279 279 283 285 285 286 287 288 285
280 280 281 283 284 284 284 281 281 283 283 284 284 284 284 284 284 286 284 283 281 279 280 279 276 276 275 275 277 279 277 278 278 280 284 285 286 286
279 280 280 281 282 282 283 284 285 283 284 283 283 282 282 283 284 285 284 283 284 283 282 282 275 276 275 274 275 278 276 276 275 277 279 282 284 286
279 279 279 280 281 280 282 282 280 279 279 279 281 283 283 283 282 284 286 285 283 283 283 281 279 279 278 277 276 276 272 275 276 276 275 278 279 281
277 277 277 278 279 278 278 278 278 277 277 277 276 279 282 283 282 285 284 284 283 282 282 282 282 282 280 278 278 277 277 272 276 276 279 277 280 280
275 275 276 276 276 276 276 276 276 276 275 275 276 276 278 280 282 283 284 282 281 280 280 280 282 283 282 280 277 278 277 276 278 277 278 279 279 279
275 273 270 268 269 273 272 272 273 273 273 274 274 274 275 277 277 282 283 281 281 280 279 279 280 279 278 280 282 278 275 276 278 278 278 273 276 277
272 272 267 266 266 271 271 271 270 271 273 272 271 272 273 274 275 275 281 281 281 280 278 279 280 278 274 270 277 284 277 276 275 274 275 273 275 276
274 271 268 268 269 271 270 270 270 269 270 269 269 269 270 271 271 272 273 280 281 280 279 279 279 278 275 273 271 272 282 274 272 271 272 275 276 281
272 271 267 267 267 268 263 264 262 262 264 262 266 268 268 269 269 270 271 272 275 280 278 277 279 280 279 274 269 269 270 280 280 275 275 272 273 274
269 268 268 267 266 264 260 261 264 261 265 264 265 267 266 267 267 268 269 269 271 277 279 279 280 278 277 275 272 267 269 271 280 283 282 279 271 268
264 264 263 262 263 261 263 259 260 258 261 264 266 265 265 264 266 267 267 268 271 273 278 277 278 279 278 278 275 271 271 270 273 277 276 282 282 281

GFSNE_sfc_thetae_084.txt.gz
Theta_e
301 302 301 302 301 299 297 293 289 284 284 287 288 292 292 292 293 292 294 297 299 298 298 299 300 298 298 297 296 296 295 294 293 293 293 294 294 295
302 301 302 301 300 300 296 294 291 288 285 288 289 290 291 293 293 293 292 297 297 297 296 297 298 298 298 297 296 296 294 293 292 292 292 292 293 293
302 302 301 301 300 296 294 293 291 289 287 289 289 289 288 288 290 291 291 290 290 295 296 296 296 296 296 296 296 296 293 292 292 291 291 292 292 292
302 301 301 301 297 295 292 291 290 289 287 286 287 287 287 288 288 288 291 292 290 294 296 296 296 295 295 294 294 294 293 292 291 291 291 291 291 292
301 300 299 297 293 290 290 289 289 291 288 285 285 285 285 285 285 285 285 285 288 293 294 294 295 295 295 294 293 292 292 291 291 291 291 290 290 290
299 297 295 292 290 288 288 287 288 285 285 283 282 282 282 283 282 282 282 282 283 288 291 290 291 292 294 293 293 292 292 292 291 291 290 290 289 289
293 291 290 291 293 290 287 284 283 282 281 280 280 280 280 280 280 282 281 282 281 283 284 285 285 285 287 291 291 292 292 292 291 291 290 290 290 290
288 287 289 290 290 289 288 288 285 281 280 279 279 280 281 281 281 282 284 283 283 282 284 282 281 280 282 281 286 288 289 290 291 290 290 289 289 289
285 287 288 288 286 285 285 285 284 286 283 281 279 280 281 281 281 282 284 284 283 283 281 278 278 278 281 283 287 289 289 290 289 289 289 289 289 288
287 285 284 282 283 284 283 282 282 283 284 284 283 283 282 282 282 284 284 285 286 282 282 279 277 277 279 279 285 287 288 289 289 288 288 288 288 288
284 284 283 282 285 286 282 281 281 281 285 287 287 287 287 287 287 285 283 281 280 280 281 281 277 277 278 278 280 286 287 287 286 287 286 286 287 288
282 283 283 282 283 284 281 280 279 280 281 282 283 284 286 285 285 284 284 280 280 280 281 280 279 276 273 278 278 279 278 282 284 284 285 286 286 282
280 280 280 281 282 282 283 281 281 283 282 282 282 283 284 284 284 284 284 283 282 282 281 282 277 277 275 275 276 278 278 278 278 278 283 284 285 284
279 279 280 280 281 282 282 282 281 280 279 278 277 278 279 280 284 284 284 285 285 284 285 283 280 278 276 273 274 277 277 277 273 277 277 280 283 284
279 278 279 280 280 280 280 279 278 276 275 274 275 275 277 278 280 284 284 285 285 285 284 283 282 281 278 275 274 275 275 277 275 275 275 276 277 277
278 278 278 278 278 278 278 278 277 276 275 274 273 275 275 276 276 279 279 283 282 283 283 284 283 281 279 278 279 278 278 273 274 274 278 276 278 281
276 276 276 276 275 275 275 275 275 274 273 272 272 271 272 273 274 275 276 277 281 280 281 281 281 281 281 281 278 278 278 277 276 276 275 276 279 280
276 273 271 270 271 272 272 272 272 271 271 271 269 270 269 270 271 272 274 274 277 281 281 281 278 279 280 280 283 279 272 276 276 277 277 274 276 277
273 272 269 268 268 271 271 270 268 269 271 269 267 267 268 269 269 269 271 272 272 275 281 280 280 279 275 270 278 284 277 276 275 272 276 274 270 276
274 272 269 269 269 270 269 268 268 265 265 267 264 263 266 267 266 266 268 268 269 272 274 280 280 279 277 271 272 274 282 277 274 270 271 273 276 280
271 270 269 268 266 266 260 258 256 256 257 255 259 260 262 265 264 265 266 266 268 270 270 277 280 281 279 274 269 269 270 280 279 273 273 271 272 273
267 268 268 266 262 261 257 255 255 255 257 258 257 259 257 260 262 263 264 264 266 268 270 272 281 279 275 275 273 267 268 269 277 282 281 279 272 269
264 266 264 260 261 259 263 257 257 254 257 259 260 261 254 260 263 264 262 264 266 267 268 270 279 277 276 277 274 272 270 268 272 274 273 282 282 281

GFSNE_sfc_thetae_087.txt.gz
Theta_e
303 302 301 301 301 300 298 296 293 288 287 289 288 291 291 291 293 291 291 297 299 300 299 300 302 302 302 300 300 299 298 299 298 296 295 294 294 295
303 301 302 302 301 301 298 297 294 292 285 288 288 289 290 292 293 292 291 296 297 298 298 298 299 299 300 300 299 298 298 298 297 296 294 294 293 293
302 302 301 302 301 300 299 296 293 290 286 287 288 288 287 288 290 289 290 290 290 295 296 297 297 297 297 297 297 297 297 297 296 295 294 293 293 293
302 301 301 302 299 299 296 294 292 289 287 285 286 286 286 287 287 287 289 290 289 293 295 295 296 296 296 295 295 295 295 295 295 294 293 292 292 293
302 301 301 300 298 295 294 292 289 290 287 284 283 284 284 285 284 285 285 285 287 292 293 294 295 296 296 295 295 294 294 293 293 292 292 292 291 291
302 301 300 297 296 293 290 287 287 285 283 282 281 281 282 283 282 281 281 282 283 287 290 290 291 293 294 294 294 294 292 292 292 291 291 290 290 291
298 297 296 294 292 290 287 284 283 282 281 280 279 279 279 280 280 281 280 283 281 283 284 284 285 286 286 290 291 292 292 292 292 292 291 291 290 290
291 290 290 291 290 289 288 287 284 281 280 278 278 278 278 279 280 279 279 279 278 282 280 282 283 284 284 282 287 289 290 290 290 290 290 290 289 289
288 288 288 287 286 285 285 285 284 285 283 281 278 278 278 280 280 279 278 280 281 283 282 282 280 281 283 283 287 288 289 289 289 290 290 289 288 288
287 287 285 284 285 285 283 282 282 283 283 283 281 280 280 281 282 282 282 283 284 284 285 280 280 280 280 281 286 287 288 289 289 289 289 288 288 288
285 285 284 282 284 284 281 280 280 281 284 285 286 286 286 287 287 285 282 281 280 280 282 281 281 278 278 279 280 286 287 288 289 288 287 286 287 287
282 282 282 281 282 282 281 280 279 281 281 282 282 283 285 285 286 285 283 280 280 279 281 279 280 279 278 278 279 280 280 286 285 285 285 285 285 281
280 280 280 280 281 281 282 281 280 280 280 279 279 279 280 280 281 283 284 283 281 280 283 282 279 279 279 275 276 278 279 278 278 279 283 284 284 283
279 279 279 280 280 281 281 280 280 279 277 276 276 276 275 277 277 278 280 283 285 283 284 284 281 279 278 277 277 278 277 276 273 276 277 280 282 283
279 278 279 279 280 280 279 278 278 276 275 273 273 273 275 275 276 277 278 279 280 283 285 285 283 281 281 279 277 276 275 275 276 275 274 276 277 276
278 278 278 278 279 278 277 277 276 275 274 273 272 273 273 273 272 274 273 273 275 276 283 285 284 283 280 280 279 277 276 276 274 275 275 277 276 277
277 276 276 276 275 275 274 274 274 273 272 272 271 270 270 270 270 272 271 271 271 272 273 281 284 283 283 281 278 278 277 277 276 277 275 275 277 278
276 274 271 271 271 272 272 271 272 271 271 270 268 268 267 267 268 268 269 268 268 269 271 273 281 280 280 281 283 279 274 275 276 277 277 276 276 277
274 273 270 269 270 272 271 270 269 269 269 268 265 265 266 267 266 266 266 266 266 267 269 273 275 279 275 274 276 284 278 276 275 274 275 274 271 276
274 272 270 269 270 269 269 268 266 264 262 264 261 260 260 264 263 263 264 263 264 266 267 271 272 279 277 274 270 271 283 276 274 272 270 272 275 279
270 269 269 268 267 267 261 258 254 254 255 253 256 257 256 261 261 262 262 262 263 265 265 267 271 274 275 277 270 267 269 281 280 275 274 271 275 272
266 268 268 266 261 259 254 254 252 253 256 255 257 253 252 255 259 260 261 261 262 263 265 268 271 273 277 275 270 264 269 268 276 281 280 278 272 268
263 264 263 259 261 261 262 256 255 252 256 260 258 258 254 255 259 261 261 261 261 262 264 266 268 271 277 277 273 271 271 269 273 274 274 281 281 281

GFSNE_sfc_thetae_090.txt.gz
Theta_e
304 304 303 301 302 302 299 297 296 290 289 292 292 294 294 293 294 294 294 296 298 299 300 301 303 304 304 304 304 303 302 301 301 300 300 299 298 296
306 304 304 303 302 301 299 297 296 295 291 293 292 293 293 293 294 295 293 296 297 297 297 299 300 301 302 302 302 302 301 300 300 300 299 298 298 296
305 305 304 304 302 301 300 298 295 294 291 292 291 291 290 291 292 292 292 292 292 295 296 297 297 298 298 298 298 299 300 300 299 298 298 298 298 296
305 304 304 303 301 301 299 296 296 293 291 289 290 288 288 290 290 289 291 291 291 292 294 295 296 296 296 296 296 296 296 297 297 297 297 296 296 295
306 305 304 301 300 298 298 296 294 293 291 288 287 286 287 287 287 287 287 288 288 291 292 293 294 295 296 296 295 295 295 295 294 294 294 294 294 293
305 304 303 301 300 297 296 294 292 290 287 284 283 284 284 286 285 284 284 285 285 288 290 290 291 292 293 294 294 295 294 294 294 293 292 291 291 292
301 300 299 298 296 294 293 289 288 285 284 283 282 282 282 283 283 283 282 283 284 285 286 286 287 287 288 289 291 292 293 293 292 292 291 291 291 291
295 293 292 292 290 289 288 287 287 285 283 282 282 281 281 282 283 282 281 280 279 284 283 283 286 286 286 287 288 289 291 292 292 292 292 291 291 290
290 289 289 289 287 286 286 285 285 285 283 283 281 281 281 282 282 281 281 280 280 284 283 282 285 284 286 286 288 289 289 290 290 290 289 289 289 289
289 288 285 285 285 285 284 284 283 283 283 283 282 282 282 283 282 283 283 283 284 284 285 280 284 283 285 285 286 288 289 289 289 289 289 289 289 288
285 285 284 283 285 285 282 281 281 281 284 285 285 285 286 286 286 285 282 282 280 281 284 282 283 282 283 283 284 286 288 289 289 289 289 289 288 287
282 282 282 282 282 282 281 280 279 281 281 281 281 281 282 282 282 283 283 280 280 279 283 281 281 281 279 282 282 283 286 287 288 288 288 286 286 285
280 279 280 280 280 281 282 281 280 280 278 278 278 278 279 278 279 279 279 278 277 279 284 283 281 282 281 280 281 281 282 283 284 285 286 285 285 284
279 279 279 280 280 281 281 280 279 278 277 276 275 275 275 275 276 276 278 279 280 279 280 282 282 281 281 280 278 281 281 281 281 281 282 283 283 284
279 278 279 279 280 280 279 278 277 276 275 273 272 272 274 274 275 274 275 277 276 277 279 279 280 282 283 280 280 279 280 281 281 281 281 281 281 281
278 278 278 278 279 278 278 277 276 275 273 272 271 272 272 272 271 272 271 272 271 272 276 278 278 279 282 282 281 280 280 279 280 280 280 280 281 281
277 277 277 276 276 276 275 274 274 273 272 272 271 270 269 269 269 270 269 269 268 269 270 273 276 277 278 283 280 281 280 279 280 280 279 279 280 281
276 274 273 272 272 273 272 272 272 271 271 270 269 268 267 266 267 268 267 266 265 266 267 269 271 273 276 282 284 280 280 280 280 280 279 278 279 282
274 274 271 270 270 272 271 270 269 269 269 267 267 265 265 265 265 264 265 265 264 265 266 268 269 271 270 272 280 285 280 279 279 278 279 278 278 280
272 270 269 269 269 269 268 268 267 265 263 264 263 262 260 263 263 263 263 262 262 263 264 266 268 270 269 268 270 278 284 280 278 278 277 278 279 279
268 268 269 268 267 267 263 260 259 259 258 256 259 259 259 261 261 262 262 261 261 263 262 264 266 270 271 273 272 276 277 282 280 279 277 276 277 277
263 265 265 264 262 262 260 259 259 258 258 258 259 259 258 259 260 260 260 261 262 262 263 265 267 269 270 270 273 274 275 275 279 282 280 280 277 274
259 262 263 262 263 263 262 259 258 255 256 259 260 261 258 258 260 260 261 261 261 261 262 263 265 268 268 270 273 275 272 273 276 276 278 281 281 281

GFSNE_sfc_thetae_093.txt.gz
Theta_e
315 312 313 314 313 312 309 305 304 298 293 296 298 302 298 298 297 300 302 301 299 299 300 301 303 304 305 305 306 305 304 304 303 303 302 302 302 301
314 311 310 312 311 311 309 303 306 304 301 300 298 302 298 296 298 300 303 300 298 297 297 298 299 301 302 303 303 303 304 304 303 302 302 301 301 300
309 309 307 309 306 304 305 303 302 303 303 302 304 302 295 296 296 299 302 301 302 296 296 296 297 297 298 299 299 300 301 302 302 302 301 300 300 300
308 307 307 307 305 305 306 303 304 301 298 298 299 293 293 297 300 300 299 298 299 296 294 294 295 296 296 296 296 296 297 298 298 299 300 299 298 298
310 308 308 307 305 305 306 306 304 297 297 295 293 292 293 295 296 296 296 296 295 294 292 293 293 294 294 294 295 295 295 295 295 295 296 296 296 296
314 310 308 308 305 306 304 300 298 294 292 291 289 289 292 294 293 293 291 293 293 292 291 290 291 291 292 293 293 293 295 295 294 294 293 293 293 294
309 308 306 306 302 302 300 296 293 290 288 287 286 287 290 288 289 291 290 291 290 290 289 289 290 290 291 291 291 291 292 293 293 293 293 293 292 292
303 295 296 295 293 290 291 290 291 288 286 286 288 286 287 287 289 288 287 285 283 290 288 288 289 287 288 290 290 290 290 290 291 292 292 292 291 291
292 291 290 289 288 287 286 286 286 286 285 288 287 285 286 287 286 285 285 284 284 288 287 285 288 287 289 289 289 289 289 289 290 291 292 291 291 290
289 288 287 286 286 285 285 284 284 285 286 285 286 285 286 286 287 286 286 286 287 287 288 282 287 286 289 290 289 288 288 289 290 290 291 289 289 289
285 285 285 284 284 285 283 282 282 283 285 285 285 285 284 284 285 285 283 283 282 284 287 285 285 285 287 287 289 289 288 287 288 290 289 289 289 289
282 281 282 282 282 282 282 282 281 282 282 282 282 282 281 282 281 282 282 280 281 281 286 284 284 284 282 286 288 289 289 288 288 289 289 289 289 289
280 279 280 281 281 281 282 282 282 282 280 280 280 280 281 279 280 281 280 279 278 279 283 281 282 282 283 283 285 287 288 289 290 290 288 289 288 287
280 280 280 281 281 282 282 281 279 279 280 279 278 278 277 277 278 277 278 278 279 278 281 280 278 279 280 281 281 285 287 288 289 289 289 288 286 286
280 279 279 279 280 281 280 279 278 279 278 277 276 275 276 276 276 275 276 276 277 277 277 278 278 279 280 279 281 284 284 286 288 287 287 287 287 287
280 280 279 279 280 280 280 279 279 278 276 275 274 275 275 274 273 273 272 273 273 274 277 278 278 278 277 279 280 282 285 283 286 286 286 287 287 287
280 279 279 278 278 278 278 277 277 276 274 274 273 272 272 271 271 272 272 272 271 271 272 275 276 277 277 277 277 280 284 285 286 285 285 284 286 286
278 277 276 276 275 275 275 275 274 273 273 272 272 271 270 270 270 271 271 270 269 270 270 272 273 273 276 279 281 281 284 284 285 284 284 283 283 286
275 274 273 273 273 273 273 272 271 272 271 270 270 269 269 269 268 268 269 268 268 269 270 271 271 271 270 271 278 282 282 284 283 283 283 283 283 284
272 271 271 271 270 270 270 269 269 269 269 268 268 268 267 267 267 267 267 266 267 267 268 270 270 271 269 269 270 275 277 277 283 283 282 284 285 281
268 268 268 268 268 267 267 267 266 266 266 265 266 266 266 266 265 265 266 265 265 266 266 267 270 270 271 272 271 274 279 281 284 284 284 282 281 281
266 266 266 266 266 266 266 265 265 265 265 265 265 265 265 265 264 264 265 265 265 266 266 268 270 270 270 270 270 272 274 282 283 282 283 283 282 278
264 264 264 264 264 264 264 263 263 263 263 263 263 264 264 263 265 265 265 265 265 265 265 266 268 269 269 270 269 270 271 279 281 281 283 281 281 281

GFSNE_sfc_thetae_096.txt.gz
Theta_e
326 325 321 317 315 317 312 309 306 302 303 308 305 306 306 306 305 307 307 302 301 300 301 302 304 305 305 305 306 306 306 306 305 305 305 304 304 304
325 324 323 321 320 319 314 310 309 306 302 309 307 310 311 307 306 305 305 303 300 299 298 299 300 302 303 303 303 304 305 306 305 305 305 303 303 303
325 323 321 320 317 313 311 310 306 306 303 307 311 314 311 308 305 304 305 304 302 297 297 297 297 298 298 299 299 301 302 302 303 303 303 302 302 301
319 316 314 313 312 311 308 307 306 306 305 303 308 300 307 300 299 302 299 300 302 300 297 296 296 296 296 296 296 296 297 297 298 299 300 301 301 300
320 316 314 311 309 309 308 306 308 307 305 303 304 299 297 295 295 297 298 300 301 298 294 293 294 294 295 294 294 294 294 295 295 295 296 297 298 299
321 314 313 312 309 309 308 306 306 304 303 299 295 290 291 293 293 293 293 296 298 297 295 292 293 293 293 293 292 293 293 293 294 294 294 293 293 294
314 312 313 309 302 303 306 305 303 297 292 291 289 288 289 288 288 292 291 293 294 295 294 293 292 292 293 292 291 292 293 293 293 293 293 293 292 293
307 297 295 294 291 290 289 288 291 291 288 288 287 286 286 286 287 288 288 289 287 294 290 289 292 290 291 292 291 291 291 291 291 291 291 291 291 292
292 291 290 289 289 287 287 286 286 286 285 288 286 286 286 287 288 288 287 286 284 289 289 287 291 290 292 291 291 291 290 290 290 290 290 290 291 291
287 287 285 285 286 286 286 284 284 284 285 286 286 287 287 288 287 286 286 286 288 288 289 285 289 289 291 291 291 291 290 290 290 289 290 290 290 290
284 284 284 283 284 286 284 283 283 283 285 286 285 285 284 284 284 286 285 284 284 285 289 286 287 287 289 290 292 291 290 290 289 289 289 289 290 290
282 282 282 282 282 283 283 283 282 283 284 284 284 283 282 284 281 283 283 281 281 281 286 284 285 286 284 288 290 291 291 289 288 289 288 290 290 290
281 280 281 281 281 281 282 284 283 284 282 283 283 283 283 283 282 283 283 281 279 279 284 282 281 281 281 282 286 288 289 289 290 290 289 289 289 289
282 283 282 281 281 282 283 281 280 281 283 282 280 280 280 280 281 281 280 280 281 279 280 280 279 279 279 278 279 284 286 290 291 289 290 290 289 289
283 281 280 280 281 282 281 279 279 282 281 279 279 279 279 279 278 278 278 278 278 278 278 279 278 278 278 278 279 281 282 285 289 290 289 289 290 289
282 282 281 281 280 281 281 281 281 280 278 278 278 278 278 277 276 277 275 276 276 277 279 280 279 279 277 279 279 279 281 282 287 288 288 289 289 289
281 282 281 280 279 280 280 280 280 278 277 277 276 275 275 275 274 275 274 274 273 274 275 277 278 279 278 277 276 278 279 282 285 286 287 286 287 288
279 277 277 277 276 276 276 275 276 275 275 273 273 273 272 272 271 272 272 272 271 272 273 274 275 275 275 277 279 278 281 282 284 285 287 285 285 288
275 274 274 273 273 273 273 272 271 272 272 272 271 270 270 270 269 270 270 270 270 270 271 273 272 272 271 270 277 281 278 279 280 280 286 285 284 286
273 272 271 271 271 270 270 270 270 269 269 269 268 268 268 268 268 268 268 268 268 268 269 271 272 272 270 270 270 274 276 276 277 277 284 286 286 281
270 270 270 270 269 269 269 269 268 268 267 267 267 267 267 267 267 267 267 266 267 267 267 269 271 272 273 273 270 273 278 280 280 279 282 283 283 282
269 269 269 269 268 268 268 267 267 267 267 266 266 266 267 267 266 266 266 266 267 267 267 269 271 271 271 270 270 272 275 278 279 281 283 284 284 280
267 268 268 268 268 267 267 266 266 265 266 265 265 266 265 265 266 267 267 267 266 266 267 267 269 270 270 270 270 271 272 273 275 281 283 281 282 281

GFSNE_sfc_thetae_099.txt.gz
Theta_e
328 328 326 326 326 326 323 316 310 305 307 312 312 312 310 309 308 310 309 306 302 302 302 303 305 307 307 308 308 307 307 307 307 308 307 306 306 306
326 326 325 326 324 324 321 317 314 310 306 312 309 312 309 307 306 306 307 306 302 300 300 300 301 303 304 304 304 305 305 306 306 306 307 306 305 304
326 325 325 326 325 324 319 317 314 311 307 311 312 312 307 305 307 307 307 307 306 299 298 298 299 299 300 300 301 301 302 303 304 304 304 304 304 304
325 325 324 322 318 318 320 315 313 312 307 305 309 309 309 309 310 307 306 305 306 300 298 297 297 297 297 297 297 297 298 299 299 300 301 301 302 302
325 324 321 317 316 317 316 312 311 310 308 305 305 307 307 300 302 299 300 298 300 299 297 296 296 296 296 295 295 295 295 295 295 295 296 296 297 298
324 320 319 318 316 314 313 310 309 307 305 303 302 296 292 292 293 292 292 295 295 300 298 295 294 294 294 294 294 294 294 294 293 293 293 293 293 294
319 309 295 294 291 292 299 303 304 303 300 297 289 288 288 288 288 290 289 289 292 294 294 294 295 294 293 293 293 293 292 292 292 292 292 292 292 293
296 292 291 290 288 288 287 287 286 289 289 289 287 287 286 286 287 286 286 285 286 292 291 290 292 290 291 292 292 292 292 292 292 292 292 291 291 291
288 288 287 288 288 288 286 286 285 286 284 287 285 284 285 285 287 286 286 287 287 289 288 286 290 288 291 291 292 292 292 291 291 291 291 290 289 289
285 285 285 285 286 286 286 285 284 284 285 286 286 286 287 288 287 287 287 286 287 288 288 283 288 287 290 291 293 292 292 291 291 290 290 290 289 289
284 285 284 283 284 286 285 284 284 284 285 285 285 285 284 285 285 285 284 284 283 284 287 285 287 287 288 290 292 292 291 291 290 290 290 290 289 289
283 283 283 282 282 283 284 284 284 284 285 285 286 285 284 285 282 283 282 280 280 280 285 282 284 284 283 289 290 290 291 290 290 290 290 289 289 289
283 282 282 282 282 283 283 283 281 283 284 284 283 284 284 284 284 284 284 281 279 278 282 280 279 279 279 280 283 285 286 287 288 290 289 289 289 289
283 283 283 282 282 282 282 281 280 281 283 282 281 282 281 281 282 280 280 280 280 279 280 279 276 276 277 277 277 282 284 285 286 287 288 289 289 289
283 281 282 283 283 282 280 279 281 281 280 278 278 279 279 279 279 279 279 279 279 279 279 280 279 278 277 276 276 279 280 283 285 285 287 288 288 289
283 283 282 281 281 282 282 282 282 280 278 278 277 277 277 277 276 277 275 276 276 276 278 280 280 279 277 277 277 277 279 278 283 284 285 286 288 289
282 281 279 278 278 278 278 278 278 277 276 275 274 274 273 273 273 275 274 273 272 272 273 276 278 278 278 277 275 276 277 278 281 282 282 282 285 287
279 277 276 275 275 274 274 274 274 273 273 272 273 272 271 271 271 271 272 271 271 271 271 273 274 273 274 276 278 276 278 278 280 281 282 281 282 285
275 275 273 273 273 272 272 272 271 271 271 270 270 270 270 269 270 269 269 270 269 269 270 271 271 270 269 268 274 278 274 274 275 276 279 280 280 282
273 272 272 271 271 271 270 270 269 270 270 269 268 269 268 268 267 267 268 268 267 268 268 269 270 270 269 268 269 272 275 274 275 276 277 280 280 284
271 271 271 270 270 270 269 269 269 269 268 268 268 268 267 267 266 267 267 267 267 267 267 267 270 272 272 273 270 271 275 277 277 277 278 277 275 282
270 270 270 270 269 269 269 268 268 267 267 267 267 267 267 267 266 266 267 266 267 267 267 269 270 271 270 269 268 270 272 275 278 278 278 278 274 279
268 269 268 268 268 268 267 267 266 266 266 266 266 266 266 265 266 266 267 267 267 267 267 268 269 270 269 269 269 270 271 272 275 275 277 282 282 283

GFSNE_sfc_thetae_105.txt.gz
Theta_e
318 318 317 317 317 317 316 313 311 306 307 307 308 313 314 312 311 311 312 309 306 304 304 306 308 309 310 311 313 314 316 317 317 316 316 316 316 316
318 317 317 317 316 316 315 315 314 312 309 312 311 311 312 313 313 312 313 309 306 303 302 303 304 306 307 308 308 309 311 312 314 315 315 315 314 314
316 316 316 317 316 316 316 317 315 315 311 314 315 316 310 311 312 313 312 312 311 303 301 301 301 302 302 303 304 305 306 307 309 310 311 311 311 310
314 315 315 317 315 316 316 315 316 316 314 312 315 314 310 311 310 311 310 309 308 305 301 301 301 300 300 300 300 300 301 302 303 304 305 304 303 303
316 315 310 307 310 304 307 308 309 310 310 307 305 307 304 298 299 299 298 298 301 301 297 296 297 298 298 298 298 298 298 297 297 297 297 298 299 299
301 297 294 294 293 296 296 294 297 299 299 298 298 293 292 293 292 291 291 294 294 298 298 296 295 295 295 295 295 295 295 295 295 294 294 293 293 295
293 292 291 291 290 289 291 289 291 291 290 290 286 288 286 286 285 287 287 288 289 290 291 292 293 294 294 295 294 294 294 294 294 294 293 292 292 292
289 289 289 289 288 287 287 287 286 286 285 285 284 284 283 284 285 285 285 284 283 290 287 286 289 288 290 291 292 292 292 293 293 293 293 292 291 291
287 286 286 286 286 286 285 285 285 285 284 284 282 282 282 282 282 282 281 281 281 284 285 283 282 283 287 289 291 292 292 292 292 292 291 291 290 290
284 284 283 284 285 285 285 284 284 284 284 284 282 282 281 283 281 281 280 280 280 282 280 277 282 280 282 284 288 290 289 288 287 288 288 290 290 290
283 283 283 283 284 285 282 280 280 281 285 286 286 286 285 284 282 278 275 274 273 276 278 275 277 276 277 278 281 283 283 283 283 284 285 286 286 287
282 283 284 283 283 282 280 279 278 278 279 279 280 280 280 280 280 278 276 273 273 271 275 273 274 273 271 276 276 277 278 281 282 282 283 285 285 286
281 281 282 283 282 282 282 279 278 278 278 277 276 275 275 275 275 276 275 273 272 271 275 274 273 273 273 272 275 276 277 277 277 279 282 283 284 284
280 280 281 282 282 280 278 278 278 276 274 273 272 272 271 272 273 273 274 273 273 272 273 273 268 271 270 269 270 274 275 277 277 277 278 280 281 282
279 280 280 280 278 277 277 276 274 272 270 268 269 269 270 271 272 272 272 272 272 273 273 273 272 272 270 268 268 270 270 273 275 274 275 276 277 278
277 276 276 276 274 273 273 273 272 270 269 268 268 268 269 269 269 270 268 269 268 268 272 272 271 271 268 269 269 268 271 269 273 272 272 273 275 277
274 273 272 271 270 270 270 270 269 269 268 267 266 267 267 267 267 268 268 267 265 265 266 269 270 271 270 270 268 270 269 269 270 271 272 271 273 275
271 268 266 266 267 267 266 266 267 267 267 267 266 266 265 265 265 266 266 265 264 265 265 267 267 267 267 269 271 267 267 267 269 271 271 270 270 274
268 267 264 262 264 266 266 266 265 266 267 266 264 264 264 264 264 264 264 264 263 264 265 266 266 265 262 260 267 272 267 268 269 269 270 270 270 272
268 266 264 263 266 266 265 264 264 263 262 263 261 260 259 263 262 262 263 262 262 264 264 265 265 265 263 263 263 266 272 268 268 267 268 271 272 276
266 266 265 264 264 264 259 258 254 256 255 255 258 259 256 261 260 262 262 262 262 263 262 263 265 268 267 266 263 264 266 272 272 269 270 269 269 270
264 264 264 263 260 260 257 255 256 254 257 259 254 252 253 259 260 260 261 261 261 262 263 264 266 266 265 264 263 263 265 267 271 273 274 273 269 266
258 261 260 259 260 258 260 257 256 251 256 256 255 259 255 258 260 261 260 260 262 262 262 263 264 265 264 265 264 264 265 266 267 268 270 275 276 277

GFSNE_sfc_thetae_108.txt.gz
Theta_e
316 317 316 316 315 315 314 312 309 305 305 306 306 310 312 311 310 311 311 308 305 304 304 305 307 309 310 311 312 313 315 316 318 318 318 318 318 318
317 316 316 317 316 316 316 315 313 311 307 311 310 310 311 312 312 311 311 308 306 304 303 303 304 306 307 307 308 309 310 312 313 314 315 317 318 318
315 314 315 316 316 316 316 315 314 313 310 312 314 316 308 310 311 312 312 313 312 302 299 300 300 301 301 302 303 304 305 307 308 310 312 313 315 316
315 315 314 316 315 316 314 312 313 314 313 311 315 313 309 305 301 301 300 301 301 300 299 298 298 298 298 298 298 299 299 300 302 303 305 307 310 312
314 313 311 306 309 302 303 302 302 304 304 302 302 297 297 294 293 295 295 296 296 297 297 297 296 296 296 295 295 296 296 297 297 297 298 299 302 305
298 295 293 292 293 296 293 293 295 296 295 294 292 291 290 291 289 287 287 288 288 292 292 292 292 293 294 294 295 295 295 295 294 294 294 294 294 296
292 291 290 290 289 289 289 288 290 289 290 287 286 285 284 284 283 285 285 284 285 288 285 286 287 288 289 290 291 292 293 293 293 293 293 293 292 293
288 288 288 288 287 287 286 286 285 286 285 284 283 282 281 282 282 281 280 279 279 284 282 282 283 284 284 284 286 288 289 288 288 289 289 289 291 291
286 286 286 286 286 285 285 285 285 285 283 283 281 280 280 281 281 279 278 278 276 279 277 276 279 277 278 281 283 286 285 284 284 284 284 285 285 286
284 284 284 284 285 285 283 282 283 283 284 283 282 281 280 279 278 277 275 275 276 277 276 271 276 274 276 277 281 282 282 282 282 282 283 283 283 285
283 282 282 281 283 284 282 280 279 279 283 283 282 281 280 280 278 274 272 271 270 273 275 271 273 273 273 274 276 279 280 280 281 281 282 282 282 283
282 282 283 282 282 282 280 277 276 276 277 275 275 275 276 276 276 274 272 268 269 267 272 269 270 270 268 273 273 274 275 278 278 279 280 281 281 280
281 280 281 281 280 280 279 276 275 275 274 273 273 272 273 272 272 272 272 269 267 267 271 269 269 270 269 269 271 272 272 273 273 274 277 279 279 279
280 280 280 280 279 278 276 275 274 272 272 271 270 269 269 269 270 271 271 271 271 270 271 271 262 268 267 265 265 269 270 272 272 273 274 275 275 276
279 279 278 277 276 275 274 273 272 270 268 266 266 267 268 269 270 270 270 271 270 271 271 271 269 269 267 265 266 267 268 271 272 270 271 271 271 273
276 275 274 274 273 272 271 271 270 269 267 266 266 267 268 267 267 268 267 267 266 266 270 270 270 269 267 268 268 267 268 266 269 269 270 271 272 273
273 272 271 270 269 269 268 268 268 268 266 266 265 265 265 265 265 266 266 265 263 264 265 267 269 270 269 268 265 267 267 267 268 269 269 269 271 272
270 268 266 266 266 266 265 266 266 265 266 266 264 264 263 263 263 264 264 263 262 263 264 265 266 265 266 267 270 267 266 266 267 268 269 267 268 271
267 266 264 263 265 266 265 265 263 264 265 264 262 262 262 262 262 262 262 262 262 263 263 264 264 263 260 259 265 270 265 266 267 266 268 267 267 269
267 265 264 264 265 264 264 263 262 260 260 261 259 257 256 260 259 260 261 260 261 262 262 263 263 263 261 260 261 264 270 267 266 266 266 268 270 273
266 265 264 263 262 261 254 253 251 253 252 251 254 255 251 257 258 259 260 260 260 261 260 261 263 266 266 266 262 262 265 271 271 268 268 267 267 268
264 263 262 261 258 256 251 249 253 251 254 255 251 249 251 254 257 258 258 258 259 260 260 262 264 265 264 262 261 262 263 266 270 272 273 272 268 264
257 260 258 258 257 254 258 253 252 247 253 255 255 255 250 254 258 258 257 258 259 259 259 260 262 263 262 263 262 263 264 265 268 268 270 275 275 275

GFSNE_sfc_thetae_111.txt.gz
Theta_e
317 315 315 315 314 313 312 310 308 304 306 308 306 310 309 309 308 311 311 308 305 304 303 304 306 308 309 309 310 311 313 314 315 315 316 318 319 321
316 315 315 316 316 315 315 314 312 310 307 311 309 309 311 311 311 309 311 309 303 299 299 300 301 302 302 302 303 305 306 307 309 310 312 313 315 317
315 315 315 316 315 315 315 315 314 313 309 312 311 311 307 306 303 303 302 301 301 297 298 298 297 297 297 297 297 298 298 300 301 303 304 306 309 310
314 314 313 314 313 314 313 312 312 312 312 310 311 301 296 296 297 295 296 295 295 296 295 293 293 293 295 295 295 295 295 296 296 296 297 299 300 302
314 313 306 305 306 303 303 302 301 302 301 302 298 295 293 290 291 290 291 290 291 294 290 291 290 291 291 291 291 291 291 292 293 293 293 293 294 295
297 294 293 293 295 296 294 294 295 295 294 293 291 288 287 287 287 284 284 285 285 288 287 288 287 289 289 287 287 287 289 290 289 289 288 287 288 289
291 290 290 290 290 289 289 288 290 289 288 287 285 284 282 282 280 281 281 281 284 282 281 281 283 283 282 282 283 284 286 286 285 285 285 285 285 286
288 288 288 288 287 287 286 286 285 285 283 282 281 280 279 280 281 279 278 276 275 281 277 276 280 278 277 278 281 282 284 283 283 283 283 283 284 284
287 286 286 286 286 285 285 285 285 284 283 282 278 278 275 276 277 275 274 274 273 276 274 273 276 275 276 277 279 282 282 281 281 281 281 281 282 282
285 285 285 284 284 283 282 281 282 281 281 280 278 277 277 276 275 274 273 273 273 275 273 267 273 272 273 274 278 280 280 279 279 279 279 279 280 281
282 282 283 283 284 284 280 279 278 278 280 280 279 278 277 277 275 271 269 268 267 270 272 268 270 270 271 272 274 277 277 277 277 277 277 278 278 279
281 282 283 281 281 281 279 277 274 273 274 274 273 273 273 273 274 272 270 266 266 264 270 267 269 268 266 272 271 272 271 274 275 276 277 278 278 276
280 279 280 280 279 278 277 275 274 274 273 272 271 271 271 271 270 271 270 268 266 266 270 269 268 267 266 266 269 270 270 270 271 272 275 275 276 275
278 278 278 278 277 276 275 274 273 272 271 269 268 268 268 268 269 269 270 270 270 269 270 269 260 266 265 264 264 268 269 270 271 271 271 272 274 274
278 278 277 276 275 274 274 273 271 269 268 266 266 266 267 268 268 268 269 269 269 269 270 270 268 268 266 265 265 266 266 268 270 270 269 270 270 270
275 274 273 273 271 271 271 270 269 269 267 265 265 266 267 266 266 266 265 265 264 265 268 269 269 268 265 266 266 265 267 265 268 269 269 269 270 271
273 272 270 270 269 268 268 268 267 267 265 265 264 264 264 264 264 265 264 264 262 262 263 266 268 268 267 267 264 265 265 266 267 267 267 267 269 270
270 268 267 267 266 266 265 265 265 265 265 265 263 262 261 261 261 263 263 262 261 261 262 263 264 264 264 265 269 265 265 265 266 267 268 266 266 268
267 266 265 265 264 265 264 264 263 263 264 262 261 260 260 260 260 260 261 261 260 261 261 262 262 262 259 257 264 269 265 265 266 265 266 266 265 267
267 265 264 264 264 263 263 262 261 260 259 261 258 255 253 258 258 259 259 258 259 259 260 262 262 261 259 258 260 263 270 266 265 264 265 267 269 272
265 264 264 263 262 261 256 255 252 253 252 250 253 253 250 255 256 258 258 257 257 259 258 259 261 264 264 264 260 261 264 270 270 268 267 266 265 267
264 263 262 261 259 258 253 251 252 251 252 253 250 248 249 252 255 256 256 256 257 258 259 260 262 263 262 261 260 261 263 266 271 273 274 273 268 265
258 260 259 258 258 256 258 252 252 246 251 252 253 254 249 252 256 256 256 257 258 257 258 259 260 261 261 262 262 263 264 266 268 270 274 276 276 275

GFSNE_sfc_thetae_114.txt.gz
Theta_e
314 315 314 314 314 314 312 310 307 303 305 309 309 311 311 310 309 310 310 300 300 300 300 301 302 302 302 302 302 303 304 304 306 307 308 310 311 312
316 315 315 315 315 314 313 313 311 309 307 311 312 311 308 309 303 303 302 299 297 296 296 296 296 297 297 297 298 298 299 299 299 301 301 303 304 306
316 315 315 316 315 315 315 314 313 313 309 312 313 304 298 299 296 298 296 296 295 293 292 292 292 293 293 293 292 292 293 294 295 296 297 298 299 301
315 315 314 314 314 314 313 313 313 313 312 309 303 296 291 294 292 292 292 291 294 291 291 289 290 291 290 290 289 288 290 291 290 291 291 291 292 294
315 314 313 313 311 307 307 307 304 302 301 302 293 292 290 288 289 288 287 287 291 289 288 286 288 289 287 286 286 285 285 287 287 287 287 286 287 288
299 298 297 300 300 299 297 296 297 294 294 293 289 287 286 286 285 282 283 284 285 284 284 283 285 285 283 282 282 283 283 285 285 285 284 284 284 285
291 291 291 292 291 292 291 291 291 289 288 286 284 283 281 281 279 280 279 280 282 280 279 280 281 281 280 279 280 281 283 284 283 282 282 282 282 282
288 287 288 288 287 287 286 286 287 286 283 282 281 277 276 277 278 276 275 275 274 280 276 276 279 277 277 276 279 280 282 282 281 281 280 280 280 280
287 286 285 286 285 285 284 283 283 282 281 280 277 276 274 275 276 274 273 273 273 275 273 273 275 273 275 275 277 280 280 280 279 278 279 279 278 279
286 285 284 283 284 283 281 279 278 278 279 279 277 276 275 274 274 273 272 271 273 275 272 268 272 271 273 274 277 279 278 278 277 277 277 277 278 278
284 284 283 282 284 284 279 277 276 277 279 279 278 277 276 275 274 272 269 268 267 270 271 269 270 270 271 273 275 276 276 276 276 276 276 277 277 278
281 281 282 281 281 280 278 276 274 274 274 273 273 273 273 273 273 271 270 267 266 265 270 268 268 268 266 271 272 272 272 273 274 275 275 276 276 275
278 278 278 279 279 278 277 275 273 273 272 272 271 270 270 270 270 271 271 269 266 266 270 269 267 267 266 267 269 271 271 272 272 272 274 274 275 275
276 276 277 278 277 276 275 275 274 272 271 270 268 267 267 268 268 269 270 270 270 268 270 270 266 266 266 265 265 269 270 271 271 271 272 273 273 274
277 278 277 276 275 274 273 272 271 269 268 267 266 266 267 268 268 268 268 269 268 269 269 269 268 267 266 265 265 266 266 269 270 270 270 271 271 271
274 273 272 272 271 270 270 270 269 268 267 266 265 266 266 266 265 266 265 265 265 265 268 268 268 267 265 266 266 265 267 265 268 269 270 270 271 271
272 271 270 269 268 268 268 267 268 267 265 265 264 264 264 264 264 265 264 264 262 262 263 266 267 267 267 266 264 266 266 266 268 268 268 267 269 270
270 268 267 267 266 266 265 265 265 265 264 264 262 262 261 262 262 263 263 262 261 262 262 263 264 263 264 266 269 267 266 266 267 267 268 266 266 270
267 266 265 265 265 265 264 264 263 263 263 262 261 260 260 260 260 261 261 261 260 261 261 263 263 262 259 257 264 269 265 265 266 266 267 267 266 268
267 265 265 265 265 264 263 263 262 261 260 261 259 258 256 259 258 259 260 258 259 259 260 262 262 261 259 259 260 263 269 267 267 266 267 270 271 273
265 264 264 263 262 261 259 258 258 258 257 256 256 257 254 256 257 258 258 257 257 259 259 260 262 264 264 264 261 263 266 271 272 271 271 270 269 270
264 263 262 262 261 259 257 256 257 256 257 257 255 253 253 255 256 257 257 257 258 259 259 261 263 263 262 262 261 262 265 269 272 275 279 277 272 268
262 261 261 260 260 259 259 256 256 252 256 256 256 256 252 255 257 257 257 258 258 258 259 260 261 262 262 262 263 264 265 266 269 272 279 281 281 280

GFSNE_sfc_thetae_117.txt.gz
Theta_e
319 319 318 318 319 318 317 315 312 307 309 315 313 314 314 308 308 302 301 298 297 297 297 298 299 299 300 300 300 300 300 301 301 302 302 303 305 306
317 317 317 318 318 316 315 315 313 311 307 315 313 307 306 302 301 300 298 296 294 293 293 294 294 295 294 293 293 294 295 296 296 296 297 298 299 300
315 314 315 316 315 314 315 314 313 312 309 313 312 301 297 296 296 296 296 294 292 290 290 292 292 290 290 289 289 289 290 290 290 291 291 292 293 294
315 315 315 315 315 315 314 314 314 315 312 310 302 293 292 292 292 289 290 293 291 288 287 289 289 287 286 286 285 285 285 286 287 288 288 288 288 289
315 315 315 315 314 314 314 314 313 308 307 307 292 292 287 289 288 288 286 288 288 287 285 284 286 285 284 283 283 283 283 285 286 285 284 284 284 285
315 314 313 314 313 310 306 303 300 299 298 294 289 286 286 285 284 282 282 284 283 283 282 282 284 283 282 281 281 282 283 284 284 283 283 282 281 282
293 293 293 293 292 293 296 295 295 292 290 287 284 282 281 279 278 279 279 280 281 280 279 281 284 282 282 281 280 281 282 283 282 282 281 281 280 281
288 287 288 288 286 286 285 285 287 287 284 282 279 277 276 277 277 276 276 276 276 282 279 279 281 280 280 280 279 280 281 281 281 280 280 280 280 279
286 286 285 285 284 283 282 282 281 281 280 279 276 275 273 275 276 275 275 276 277 279 277 277 279 277 278 278 279 279 280 279 279 279 279 279 278 278
285 285 284 283 282 281 279 278 277 278 278 278 276 275 275 275 276 275 275 276 279 278 276 273 277 275 277 278 278 278 278 278 278 278 278 278 278 278
284 284 283 282 282 282 278 276 276 276 279 278 278 277 276 275 275 275 274 274 273 274 275 273 275 274 275 276 278 277 277 277 277 277 277 277 277 277
281 282 282 281 281 280 278 276 273 273 273 273 273 273 274 274 274 273 273 270 270 272 274 270 272 272 271 275 276 276 277 276 276 276 276 277 277 277
279 279 280 280 279 279 278 276 274 274 273 273 273 273 273 273 273 272 273 271 270 270 273 272 271 271 271 271 273 275 276 276 277 276 276 276 276 276
277 277 278 278 278 277 276 276 275 274 273 273 272 270 270 271 272 272 272 272 272 271 273 272 270 270 269 269 270 274 276 276 276 275 276 276 275 275
277 278 278 277 276 274 274 273 272 272 270 270 269 269 270 271 271 271 272 272 272 272 272 272 271 271 271 270 270 272 272 274 275 275 275 274 274 274
274 273 272 272 271 271 271 271 271 272 271 270 269 270 270 270 270 270 270 270 270 271 272 272 271 271 269 271 271 270 272 271 275 274 274 274 274 275
272 272 270 270 270 270 269 270 270 270 269 269 269 269 269 269 268 269 269 269 268 268 269 270 271 271 271 270 270 271 272 273 274 273 273 273 275 276
273 271 270 270 269 268 268 268 268 268 268 268 268 267 267 267 267 268 268 268 267 268 268 269 269 270 271 273 272 271 272 273 273 273 274 273 274 277
271 269 269 269 269 269 268 268 267 267 267 267 266 265 266 267 267 267 267 267 267 267 268 269 269 268 266 265 271 272 271 271 272 275 276 276 276 278
270 269 269 269 269 268 268 267 267 267 266 266 265 265 264 266 266 266 267 265 266 266 267 269 268 267 264 264 265 269 272 272 273 274 276 280 282 280
269 268 269 268 268 267 266 266 266 265 265 265 264 264 264 265 265 266 266 263 264 266 266 266 267 267 269 270 268 270 274 276 275 275 277 280 279 280
268 267 267 267 267 266 266 266 265 266 265 265 264 265 264 265 265 265 265 265 265 265 266 267 268 269 269 268 268 269 273 275 278 278 281 281 279 276
267 267 266 266 266 266 266 266 265 265 265 264 264 264 263 264 265 266 265 265 265 264 266 266 267 269 268 269 269 271 272 274 277 278 282 282 281 281

GFSNE_sfc_thetae_120.txt.gz
Theta_e
328 329 325 324 325 324 322 321 316 310 310 316 314 317 308 306 304 301 299 296 296 296 297 297 298 297 296 296 296 297 298 298 297 298 298 298 299 300
326 327 326 324 324 324 323 322 321 316 311 316 313 306 304 300 300 298 296 293 293 293 294 293 293 292 292 291 291 291 291 291 292 293 293 293 294 294
324 325 323 322 321 321 320 319 318 317 310 312 306 300 297 295 294 296 294 291 289 290 291 290 289 288 287 287 286 286 287 287 288 290 290 290 290 290
321 320 319 319 319 318 318 318 315 316 312 310 301 293 292 292 290 289 292 291 288 286 286 288 287 286 284 284 284 284 285 286 287 286 286 286 287 287
317 317 318 315 314 315 314 314 314 313 313 311 293 291 288 289 287 287 287 288 287 285 283 284 285 284 283 282 282 283 283 285 285 284 283 283 283 284
315 315 314 314 314 314 313 313 311 306 301 293 288 286 285 284 283 282 281 284 284 282 282 282 283 283 282 282 282 282 283 284 283 282 282 281 281 282
298 296 295 297 295 299 304 300 300 295 291 287 284 282 280 279 278 279 279 281 280 280 280 282 283 284 285 284 282 281 281 282 281 281 281 281 281 281
289 288 288 288 287 286 286 286 289 290 286 282 280 278 277 277 277 276 277 278 278 280 279 282 284 284 284 283 281 280 280 281 281 281 280 280 280 280
287 286 285 285 284 282 282 282 281 282 282 281 277 276 275 277 277 276 277 279 278 278 278 279 282 280 281 280 281 280 280 280 280 280 280 280 279 279
285 284 283 282 282 280 279 277 277 277 278 278 276 276 276 277 277 278 278 278 280 281 278 276 278 276 278 279 280 280 280 280 280 280 279 279 279 279
283 283 282 281 283 283 279 277 276 277 279 279 278 278 277 277 278 278 277 279 278 278 278 276 278 277 279 280 281 280 280 280 279 280 280 280 279 279
281 281 282 281 280 280 277 276 274 274 274 274 274 275 275 275 277 278 277 276 276 277 277 275 276 276 275 279 279 280 280 280 280 280 280 280 279 280
280 279 280 280 280 279 278 276 275 275 275 275 275 274 275 276 276 276 276 277 276 275 274 275 275 275 275 275 277 280 280 281 281 281 280 280 280 279
279 279 279 279 278 278 277 277 276 276 276 274 275 274 274 275 276 276 276 276 276 274 275 275 275 274 273 273 274 278 280 281 281 281 281 281 280 280
278 278 278 278 277 276 276 276 275 276 275 274 274 274 274 275 275 275 276 276 276 275 275 275 275 274 274 274 274 276 277 280 281 281 281 280 280 281
276 275 274 274 274 274 275 275 276 277 275 275 274 274 275 274 274 274 274 275 276 276 276 276 275 275 274 275 275 276 279 278 281 280 280 281 283 284
273 273 274 274 274 274 274 275 276 275 273 274 273 273 272 273 273 274 274 275 274 274 274 275 276 277 277 276 276 278 278 279 280 279 279 280 283 284
276 276 275 276 275 274 273 272 273 272 272 273 273 273 273 273 274 274 275 274 274 273 273 274 275 276 277 279 276 276 278 278 278 279 281 281 281 285
275 274 273 273 273 273 272 271 270 272 272 273 273 272 273 273 274 273 273 273 273 273 273 275 274 273 272 272 277 275 275 275 276 278 280 282 282 285
275 274 273 274 274 272 272 272 272 272 273 273 272 271 272 273 273 272 273 271 271 272 272 274 274 272 270 270 270 275 277 277 277 277 278 282 285 284
274 274 274 274 273 273 273 273 273 272 272 272 271 271 272 273 272 272 272 269 269 272 271 271 273 271 274 275 274 276 279 280 280 278 280 280 280 281
274 273 273 273 273 273 272 271 271 272 272 272 272 272 272 272 272 271 271 271 271 271 271 273 274 274 275 273 273 274 277 281 282 282 282 281 280 277
273 273 273 272 272 272 273 272 272 272 271 271 271 271 270 271 271 272 271 271 271 270 271 271 273 275 274 275 274 275 276 279 280 280 283 283 282 282

GFSNE_sfc_thetae_123.txt.gz
Theta_e
323 326 324 325 326 325 325 324 320 313 313 316 314 312 310 306 303 299 297 296 297 297 296 296 296 295 294 294 293 293 293 293 294 295 295 295 295 295
323 324 325 326 325 326 326 325 324 318 312 317 309 305 302 300 297 295 294 294 294 292 291 291 290 290 289 289 288 289 289 290 292 292 292 291 292 292
323 324 324 325 325 327 328 327 323 321 316 311 304 299 297 296 295 293 291 289 289 290 289 288 287 286 286 285 286 286 287 288 289 288 288 289 289 289
321 322 323 323 324 325 324 320 320 321 317 310 297 294 292 292 291 292 290 289 287 286 287 287 286 285 284 284 284 284 285 286 286 285 285 285 286 286
319 322 323 323 323 321 319 318 319 314 314 308 294 290 289 289 286 287 287 287 286 285 283 285 284 284 283 283 283 283 283 284 284 283 283 283 283 284
317 318 320 321 320 318 315 314 312 310 307 296 289 286 285 284 285 283 282 284 282 282 282 282 284 284 283 283 283 282 282 283 283 282 282 282 282 282
312 310 310 309 300 301 311 311 310 299 295 291 286 284 281 281 280 280 280 282 280 280 281 283 284 285 285 285 283 282 282 282 282 282 282 282 282 282
291 290 292 291 289 288 287 286 293 295 290 287 283 281 278 278 279 278 280 281 279 280 279 282 284 283 283 283 282 281 281 281 282 282 282 282 281 282
288 287 286 286 286 284 283 282 282 283 284 284 280 278 277 278 279 279 280 281 278 277 278 280 282 281 281 281 281 281 281 281 281 281 281 282 282 281
285 285 285 284 284 282 280 277 277 277 278 278 278 277 278 279 279 279 280 280 280 278 279 277 280 279 281 282 281 281 282 282 282 282 282 282 282 281
284 284 284 282 283 284 279 277 276 277 280 280 280 280 280 280 280 280 279 280 278 279 278 278 279 278 280 281 282 282 282 283 283 283 283 282 282 282
281 281 282 281 281 281 278 276 274 275 275 275 276 277 277 278 279 280 280 278 278 278 276 276 277 277 276 280 280 281 282 283 283 283 283 283 283 282
279 279 280 281 280 280 279 276 275 276 276 276 275 275 276 277 277 278 278 278 278 276 274 277 276 276 275 275 278 281 282 283 283 283 285 284 283 283
279 279 279 279 279 279 278 278 277 277 277 276 275 275 276 276 277 278 277 277 277 275 276 276 275 274 274 274 275 279 281 283 283 284 284 284 285 285
279 279 280 279 279 278 278 278 277 276 277 276 276 276 276 277 277 278 278 278 277 276 276 276 275 275 275 275 275 277 279 282 283 283 283 283 284 285
277 276 275 276 276 276 277 279 280 280 279 278 276 277 277 277 276 276 276 276 277 277 277 277 277 276 275 276 277 277 280 279 282 281 282 283 285 286
274 274 274 274 274 275 276 277 278 278 277 277 277 276 275 276 275 276 276 276 276 275 275 277 278 279 279 278 277 279 279 279 280 280 281 281 284 286
276 276 275 276 277 276 276 276 276 275 276 276 276 276 275 275 276 276 277 276 275 275 275 276 277 277 278 281 279 277 278 278 279 280 281 280 281 285
276 276 277 277 276 275 275 275 274 275 276 275 275 275 276 275 276 275 275 275 274 274 275 276 276 274 272 272 277 275 275 277 278 279 280 280 280 283
277 276 276 276 276 274 274 273 274 275 275 275 274 275 275 275 275 274 275 273 273 274 274 275 275 273 270 271 271 276 279 278 278 278 279 282 283 283
276 276 276 276 275 275 276 276 276 275 275 274 274 274 274 275 274 274 274 272 272 273 272 273 274 275 276 277 275 277 280 282 282 281 281 281 281 281
277 276 276 276 276 275 274 273 273 274 274 274 274 274 274 274 273 273 273 273 273 273 273 274 275 276 276 275 275 276 278 281 284 284 283 282 281 278
276 275 275 275 275 275 275 275 274 274 273 273 273 272 272 273 273 274 273 273 273 272 272 272 274 275 275 275 275 276 277 279 280 281 283 284 284 283

GFSNE_sfc_thetae_126.txt.gz
Theta_e
322 322 321 322 322 321 320 319 314 309 310 312 308 307 305 301 299 297 297 298 297 297 297 296 296 295 294 293 293 293 293 294 295 294 294 294 294 294
321 321 321 322 321 320 319 319 318 315 309 311 303 302 299 297 296 295 295 294 293 292 292 291 291 290 289 289 289 290 291 292 292 291 291 291 291 291
321 321 320 320 319 320 320 319 318 317 308 302 300 298 296 293 292 291 290 290 290 290 289 288 287 287 286 287 287 287 288 289 288 287 288 288 289 289
319 319 319 320 320 320 319 318 316 316 310 300 296 293 292 293 291 289 289 287 287 288 288 287 286 285 285 285 285 285 286 286 285 285 285 286 286 287
319 319 318 319 318 318 317 316 315 314 310 300 293 291 289 289 288 287 286 285 286 285 285 285 285 284 284 284 284 284 284 284 284 284 283 284 284 285
319 320 319 319 318 318 316 315 313 310 304 296 290 286 285 286 286 284 282 283 281 283 283 283 285 285 284 284 284 283 283 283 283 283 283 283 283 283
315 315 313 313 308 313 316 312 310 304 299 292 286 284 282 282 282 282 282 280 280 281 281 283 284 285 285 284 283 283 282 282 283 283 283 283 283 283
312 300 299 296 293 292 291 291 299 299 293 291 285 284 281 280 281 281 281 280 278 280 280 281 282 282 282 282 282 282 282 282 283 283 283 283 283 283
295 293 288 289 289 286 286 285 285 286 286 288 286 282 279 279 280 280 280 281 277 277 280 280 280 279 281 281 282 281 282 282 282 283 284 283 283 283
287 287 287 285 285 285 283 281 280 280 282 282 281 280 280 281 281 281 281 278 278 278 280 278 279 278 280 280 283 282 283 283 283 284 284 284 284 285
285 285 286 285 286 287 282 279 278 279 282 283 282 282 282 282 282 280 278 278 278 277 277 277 278 276 277 277 279 282 283 283 284 284 284 285 285 284
282 282 284 283 284 284 281 279 276 276 277 278 278 279 280 281 281 281 281 279 278 275 275 275 275 275 275 278 278 279 279 283 284 285 286 285 285 281
280 280 281 282 282 281 280 278 276 276 276 276 275 275 276 277 277 278 279 277 276 272 274 275 274 274 273 273 275 277 278 278 278 280 284 284 285 284
278 279 279 280 280 279 278 278 278 277 276 275 275 274 275 275 276 276 276 276 276 275 275 275 270 271 270 270 271 276 276 278 278 279 279 282 283 284
279 280 281 280 280 278 279 278 278 277 276 275 275 274 275 276 277 277 277 276 276 275 275 275 273 273 271 270 270 272 274 277 278 277 277 279 279 281
279 278 277 277 277 278 278 279 278 278 277 275 274 275 276 275 275 275 275 275 273 274 276 276 275 274 271 273 274 273 275 273 276 277 278 279 280 281
276 276 276 276 275 276 276 277 277 277 276 276 275 274 274 275 274 274 274 274 273 272 272 275 276 277 276 276 272 274 273 274 275 276 277 277 279 280
276 274 274 274 274 275 275 275 275 275 275 275 275 275 274 273 273 274 274 271 269 271 272 273 273 272 274 277 279 273 271 271 273 276 277 275 276 279
275 275 274 274 274 274 274 274 273 275 276 274 273 272 272 273 273 273 272 272 271 271 271 272 271 270 266 261 274 277 270 272 274 274 276 276 275 278
275 274 273 274 274 274 273 273 273 274 273 273 272 272 271 271 270 271 270 267 268 270 271 272 270 269 264 263 264 269 279 275 274 274 275 278 279 282
275 274 274 274 273 274 274 274 273 272 272 272 271 269 267 270 268 269 268 266 267 270 269 269 270 272 272 270 266 268 272 281 280 277 278 276 275 276
274 274 274 274 274 273 271 272 272 272 271 271 269 267 266 268 266 266 265 266 268 268 269 270 273 273 272 272 268 266 272 272 280 282 283 281 273 274
274 274 274 273 273 273 273 273 272 271 271 270 269 266 264 265 267 267 266 267 267 267 268 268 270 272 272 273 271 269 270 274 274 276 277 282 283 283

GFSNE_sfc_thetae_129.txt.gz
Theta_e
321 322 321 321 321 320 318 315 312 306 308 309 304 302 300 299 299 299 298 299 299 298 298 298 297 296 295 294 295 295 297 296 295 294 293 293 293 293
321 321 321 321 320 320 319 317 315 313 308 306 302 299 297 297 297 295 295 295 294 293 293 292 292 292 291 291 292 293 293 292 291 291 291 290 291 291
321 321 320 321 320 318 320 319 316 315 306 298 298 295 294 293 292 292 291 290 290 290 289 289 288 288 288 288 289 290 290 288 288 288 288 289 289 290
319 320 320 320 319 320 318 318 317 314 308 297 294 293 291 290 289 288 288 289 288 289 288 287 287 287 286 286 286 287 286 285 285 285 285 286 287 288
319 319 319 319 317 319 316 316 316 312 306 298 294 291 290 289 287 286 285 285 286 288 287 286 286 286 286 285 285 285 285 284 284 284 284 284 284 285
318 319 319 319 319 318 315 313 312 307 303 297 291 288 287 287 286 283 281 283 282 284 285 285 285 285 285 285 284 284 284 283 283 283 283 283 283 284
316 318 318 315 309 312 315 312 308 301 297 293 288 284 283 283 283 284 281 280 280 281 282 283 284 285 285 284 284 283 282 282 283 283 283 283 284 284
312 310 313 307 305 300 300 301 305 301 296 294 291 288 284 285 283 283 279 278 277 281 281 281 282 282 282 282 283 282 282 282 282 283 284 284 283 284
308 297 291 294 294 291 289 288 288 290 293 292 291 288 284 284 284 282 282 281 278 278 281 279 280 279 281 282 283 282 283 282 283 284 284 284 284 285
287 288 289 287 289 288 289 285 284 285 285 286 287 284 283 284 285 284 280 277 277 278 281 278 279 278 279 280 283 283 283 283 284 284 284 286 285 286
285 286 285 286 288 291 286 284 283 282 285 285 285 285 285 284 283 280 277 278 276 276 277 279 278 276 277 276 278 283 283 284 284 285 285 285 285 285
283 285 286 285 285 287 285 283 279 279 280 280 281 282 282 282 282 282 281 278 276 274 276 277 276 275 273 277 276 277 277 282 283 285 284 284 285 280
281 281 283 284 285 285 285 283 279 278 278 277 277 277 278 278 278 277 278 280 275 272 275 277 274 274 273 272 274 276 276 277 277 279 282 283 284 284
279 280 281 282 282 281 280 280 279 277 277 276 275 275 274 275 276 276 276 276 276 275 276 276 272 272 271 269 270 275 276 276 277 277 277 280 282 283
280 281 282 281 280 279 279 279 278 277 276 275 274 274 275 276 277 276 276 275 276 276 276 276 274 273 271 269 270 272 272 276 277 276 276 277 277 278
280 278 278 278 278 278 278 278 277 277 275 274 274 275 276 276 275 276 275 275 273 273 275 276 275 274 270 272 273 272 274 271 274 275 276 277 278 278
277 278 277 277 276 276 276 276 277 276 275 275 274 274 275 275 275 276 276 274 272 272 272 275 276 276 275 275 271 273 272 273 273 274 275 275 277 277
277 275 275 275 275 275 275 275 275 275 275 275 275 275 274 274 274 274 274 272 270 271 271 272 272 271 273 275 278 272 269 270 272 274 275 271 275 278
276 275 274 274 274 274 274 274 274 275 276 275 274 274 274 273 272 272 271 270 270 270 270 270 270 268 265 260 272 277 269 271 271 271 273 272 272 277
275 273 273 273 273 273 274 273 274 274 274 274 273 272 272 272 270 270 268 264 267 269 270 271 270 269 263 263 263 268 277 270 267 269 272 275 277 281
274 273 273 273 273 274 274 273 273 272 272 271 271 271 270 270 269 268 267 266 268 270 268 268 270 271 270 268 263 264 270 279 278 274 273 274 272 273
273 273 274 274 273 272 273 272 272 271 271 270 270 269 268 269 269 268 267 267 268 267 267 269 272 272 270 270 266 262 268 270 277 280 281 279 271 271
273 273 273 272 273 273 273 273 272 271 271 270 269 268 268 267 268 267 268 267 267 266 266 266 269 270 270 271 267 264 266 268 272 273 274 280 281 282

GFSNE_sfc_thetae_132.txt.gz
Theta_e
323 321 322 323 321 319 318 316 311 307 306 306 301 301 301 302 302 302 301 301 301 300 300 301 300 300 299 298 299 299 298 297 295 294 294 294 294 294
324 322 321 322 321 319 319 317 315 312 307 306 301 298 299 297 298 297 297 297 297 296 296 296 295 295 295 295 296 295 294 292 292 291 291 291 292 292
323 321 321 322 321 319 318 316 315 313 307 297 296 296 295 294 293 292 292 291 292 292 292 292 291 291 291 292 293 291 290 289 289 288 289 289 290 290
320 320 320 321 320 320 318 316 315 314 306 296 293 292 291 291 290 289 289 289 289 290 289 289 289 288 288 289 289 287 287 286 286 286 286 286 287 288
319 319 319 320 319 319 319 317 317 312 306 295 293 292 289 288 286 286 286 286 288 289 288 287 288 287 287 287 287 286 285 285 284 284 284 284 285 286
319 319 319 319 318 319 317 317 316 309 303 299 293 290 288 287 286 283 282 284 284 286 286 286 286 287 286 286 285 285 284 283 283 283 283 283 284 284
316 317 318 316 309 312 318 314 311 306 302 295 291 287 285 284 283 284 281 280 281 282 282 283 284 285 284 285 285 284 283 283 283 283 283 284 283 284
313 313 313 306 305 301 301 301 306 303 298 296 293 288 286 287 285 283 280 278 277 281 281 281 283 283 284 282 284 283 283 283 283 283 283 283 283 284
311 305 300 299 302 295 296 296 295 296 297 298 292 291 287 288 286 282 282 283 279 279 281 278 281 279 281 282 284 283 283 283 283 283 283 284 285 285
289 289 292 288 291 292 288 289 289 289 291 294 296 292 290 289 289 287 284 278 279 280 282 277 280 278 280 281 283 283 283 283 283 284 284 285 285 286
286 286 286 287 290 293 288 286 285 284 288 288 288 288 289 288 285 282 279 278 275 276 278 279 278 277 278 277 279 283 283 283 284 285 284 284 285 284
285 285 286 286 287 288 288 287 284 284 284 284 284 284 285 285 284 285 282 279 275 274 277 276 276 277 274 277 276 277 277 281 284 284 283 284 284 279
283 283 285 286 286 287 288 286 283 281 280 280 280 279 279 279 280 282 282 281 277 274 277 278 275 274 274 273 275 276 276 276 278 278 281 282 283 282
281 282 283 285 285 284 282 282 282 280 280 278 277 276 276 275 276 277 277 277 277 276 278 277 274 273 272 271 271 275 275 277 277 277 277 279 281 282
282 283 283 282 282 281 281 280 280 279 278 276 275 274 275 275 276 275 276 276 276 276 276 276 275 274 271 270 270 272 272 276 276 275 275 276 276 277
281 279 278 278 278 278 278 278 278 278 276 275 274 275 276 275 274 275 274 274 273 273 276 276 276 274 271 272 273 272 274 271 273 274 275 276 277 277
277 277 277 277 276 275 276 276 276 276 275 275 275 275 275 275 275 276 275 274 272 272 272 274 276 276 275 274 271 272 272 272 272 274 274 273 276 277
278 276 275 275 275 275 274 274 275 275 275 275 275 275 275 274 274 274 274 273 272 272 271 272 272 271 273 275 277 272 269 270 271 274 274 271 273 277
276 275 275 275 274 274 274 274 274 275 276 275 275 275 274 274 273 273 272 272 271 271 270 271 270 268 265 260 271 277 270 270 271 270 272 271 270 276
275 274 274 274 274 274 274 274 274 274 274 274 274 273 273 272 272 271 270 269 270 270 270 270 269 268 264 264 264 268 276 269 267 267 270 273 276 280
274 273 274 274 273 274 274 274 274 273 273 273 272 272 271 271 270 270 270 269 269 269 268 268 269 270 269 267 264 266 270 277 276 270 270 268 270 272
273 273 273 273 273 273 273 273 272 272 272 272 271 271 271 271 270 269 268 268 267 267 267 269 271 271 270 270 265 261 267 268 275 279 279 276 269 267
273 273 273 273 273 273 273 272 271 271 271 271 271 271 271 269 269 269 268 268 267 266 266 267 269 269 269 270 266 264 264 265 270 271 271 278 280 281

GFSNE_sfc_thetae_135.txt.gz
Theta_e
323 322 321 322 321 319 319 316 313 307 307 303 301 303 304 306 306 306 307 304 304 303 304 304 305 305 305 305 304 303 301 299 297 296 295 295 295 295
323 322 321 323 323 321 319 317 317 313 308 306 300 299 300 300 301 301 301 301 300 299 299 299 300 300 301 300 299 297 296 295 294 293 293 293 293 293
323 323 321 322 322 321 319 318 316 315 310 296 297 297 296 296 295 295 295 294 295 295 296 296 295 296 296 296 294 293 292 291 291 290 291 291 291 291
322 322 321 322 321 321 319 317 316 316 307 295 294 293 293 292 291 290 290 291 291 293 293 292 292 292 292 291 290 289 288 288 287 287 287 287 288 289
321 320 320 319 319 319 319 317 317 315 307 295 293 293 289 289 287 287 287 287 289 291 290 289 289 289 289 288 287 287 286 285 285 285 285 284 285 286
319 319 319 319 319 319 318 316 315 311 303 299 294 291 288 287 287 284 283 286 285 286 287 287 287 288 287 287 286 286 285 284 284 284 283 283 284 285
316 317 318 315 309 313 318 317 315 308 301 297 292 288 286 285 285 286 284 283 282 284 283 284 284 285 285 286 286 286 284 284 284 283 284 284 284 284
314 314 315 306 306 301 301 301 309 306 301 296 293 289 287 286 286 284 281 280 279 282 282 281 284 283 284 284 285 284 284 284 284 284 284 284 284 284
312 309 305 304 304 305 297 297 297 297 299 301 294 293 287 288 287 284 284 284 281 281 282 279 282 282 284 283 285 284 284 284 284 284 284 284 284 285
297 296 300 293 291 295 291 290 291 298 297 299 299 296 294 291 290 289 286 281 281 282 282 277 280 279 281 282 284 284 284 284 284 284 284 285 285 285
286 286 287 287 290 293 290 288 286 285 289 294 296 294 292 291 290 285 282 281 277 278 280 279 279 277 279 279 281 284 284 284 284 285 284 284 285 284
285 285 287 287 289 289 290 288 286 284 286 287 288 289 289 287 287 289 287 285 277 275 278 277 277 277 274 278 278 279 279 282 285 284 283 284 284 279
284 284 285 287 288 289 288 287 287 286 284 284 284 284 284 284 284 285 285 284 280 277 280 278 277 276 276 274 276 277 277 278 278 278 280 281 282 281
283 284 285 286 286 285 284 284 284 284 284 282 281 279 279 278 278 278 278 278 279 279 279 279 276 276 274 272 273 276 276 277 276 276 277 279 280 281
283 285 285 284 284 283 283 283 283 282 281 279 277 276 276 276 276 276 277 278 278 278 278 277 277 275 274 273 272 273 274 276 276 275 275 276 276 276
282 280 279 279 279 279 279 279 280 280 279 277 275 275 276 275 275 276 274 275 274 274 276 277 277 275 273 273 273 273 274 272 274 274 275 275 276 277
278 278 278 277 276 276 276 277 277 277 276 276 275 275 274 274 274 275 275 274 272 272 273 275 276 276 276 275 272 273 272 272 273 273 273 272 275 277
279 277 276 276 275 275 275 275 275 275 276 276 275 275 274 274 274 275 275 274 272 272 272 272 274 273 274 275 277 272 269 270 271 273 273 269 272 276
277 276 275 275 275 275 275 274 274 275 276 276 275 275 274 274 274 273 273 273 271 271 270 272 271 270 267 265 271 277 270 271 270 269 271 270 269 275
275 275 274 275 274 274 274 274 275 275 275 275 274 274 274 273 273 272 272 270 270 270 270 271 271 270 268 266 266 269 276 269 267 265 268 271 275 278
274 274 274 274 274 274 274 274 274 274 274 273 273 273 273 272 271 271 270 270 270 270 269 269 271 271 270 269 267 266 269 276 274 269 269 268 271 271
273 273 273 274 274 274 273 273 273 273 272 272 272 272 272 272 271 270 270 269 269 269 269 270 272 272 270 269 265 261 266 268 274 277 278 276 268 265
273 273 273 273 274 274 273 273 272 272 272 272 271 271 271 270 270 270 269 269 268 268 268 268 270 270 270 269 266 264 263 265 268 269 270 277 278 279